Location: *
(34.6903°N, 135.5184°E)
Time: 08:12:48
(UTC+00:00)

Timation 2 Rocket - Pass Details

Date: 22 September 2019
Orbit: 908 x 1074 km, 70.0° (Epoch: 14 October)

Event Time Altitude Azimuth Distance (km) Brightness Sun altitude
Rises 18:29:55 0° 338° (NNW) 3,560 7.0 -28.1°
Reaches altitude 10° 18:32:27 10° 340° (NNW) 2,604 6.2 -27.7°
Maximum altitude 18:38:27 80° 67° (ENE) 925 3.8 -26.5°
Drops below altitude 10° 18:44:25 10° 155° (SSE) 2,593 6.3 -25.4°
Sets 18:46:55 0° 156° (SSE) 3,543 7.0 -24.9°
